ATLAS V CENTAUR R/B, 41329

Orbit data source: Space-Track

ATLAS V CENTAUR R/B, 41329 is space debris in MEO originally from a launch on Fri, 05 Feb 2016 UTC launched from the Air Force Eastern Test Range (AFETR). Debris objects in space refer to the collection of defunct objects orbiting the Earth. Examples of debris include non-operational satellites, rocket bodies, and fragments generated from explosions, collisions, or faulty payload assembly.

Loading next visibility...
Identifier
41329, 2016-007B
Orbit
MEO
Country
Flag of USUS
Related business
Flag of USUnited Launch Alliance/Lockheed Martin (US)
Manufacturer
LMSS Denver
Mission
Spacecraft
Bus & Motor
CENTAUR SEC, RL10C-1
Mass
~2,020 kg wet, 2,020 kg dry
Launch date (UTC)
2016-02-05 (10 years ago)
Launch vehicle
Unknown
Launch site
Air Force Eastern Test Range (AFETR)
Object type
Payload
Rocket body
Debris
Shape & HBR
Cyl + 1 Nozzle, 5.8 m
Radar Cross Section
32.260 m², Large (>1 m²)

Expand to show TLE details & history
Last TLE update: 2 days ago

TLE from 2 days ago
0 ATLAS V CENTAUR R/B
1 41329U 16007B   25256.01343914  .00000004  00000-0  00000-0 0  9992
2 41329  55.5682 113.8642 0112096 351.3180   8.5749  1.91799396 67298
Epoch: 2025-09-13T00:19Z
TLE epoch observation values (Epoch: 2025-09-13T00:19:21.141Z)
Latitude
-0.00002°
Longitude
116.78327°
Altitude
20,682.618 km
Speed
3.859 km/s
True Right ascension
07h 35m 29s
True Declination
0° 00' 00"
Sunlit
Object was in daylight at epoch
Visualization orbit readout
Latitude
Unknown
Longitude
Unknown
Altitude
Unknown
Speed
Unknown
Apparent Right ascension
Unknown
Apparent Declination
Unknown
Sunlit
N/A
Visualization observer readout
Local Sidereal Time
00:04:38
Azimuth
Unknown
Elevation
Unknown
Doppler factor
Unknown
Orbital elements
Apogee altitude
21,291.998 km
Perigee altitude
20,678.532 km
Semi-major axis
27,363.402 km
Eccentricity
0.01121
Inclination
55.5682°
RAAN
113.8642°
Arg. of periapsis
351.318°
True anomaly
8.76911°
Mean anomaly
8.5749°
Eccentric anomaly
8.67174°
Mean motion
0.4795 °/min
Orbital period
750.78 mins
BSTAR
0
Loading maneuver chart data...
Computing Atmospheric mass density...
Loading historical data...
Loading historical data...
Loading historical data...
Loading historical data...
Loading historical data...
Loading historical data...
Loading historical data...
Other satellites on launch #7 in the year 2016 (2016-02-05 UTC)

Documentation

Showing up to 5 results
|